Zurück zum Katalog

PSLV DEB

AktivPO
NORAD 38842·DEBRIS·🇮🇳 India

Gestartet May 5, 2005 von Satish Dhawan Space Centre

Loading…

Nächste Überflüge (nächste 24 Stunden)

TLE

AlterndSource: Space-Track

Epoche: Sep 4, 2026, 23:37 UTC

1 38842U 05017F   26247.98460036  .00017136  00000-0  48814-3 0  9991
2 38842  98.0838 333.7500 0019620  85.6959 274.6524 15.35986374866533

Verfolge PSLV DEB in Echtzeit mit AllMySat

Download on the App Store